When you browse on this site, cookies collect data to enhance your experience and personalize the content and advertising you see.
Visit our Privacy Policy to learn more. By continuing to use the site, you agree to this use of cookies and data.

Hourly Weather Benito Juarez

Today, 9 July, Thursday

Time Temperature Precipitation Wind Pressure Humidity
00:00 +22°C° 0 mm 1 mps 673 mmHg 89%
01:00 +21°C° 0 mm 1 mps 673 mmHg 88%
02:00 +21°C° 0 mm 1 mps 672 mmHg 88%
03:00 +21°C° 0 mm 1 mps 672 mmHg 87%
04:00 +21°C° 0 mm 1 mps 672 mmHg 86%
05:00 +21°C° 0 mm 1 mps 672 mmHg 85%
06:00 +22°C° 0 mm 1 mps 673 mmHg 82%
07:00 +24°C° 0 mm 1 mps 673 mmHg 80%
08:00 +23°C° 0 mm 0 mps 673 mmHg 77%
09:00 +26°C° 0.1 mm 1 mps 673 mmHg 75%
10:00 +27°C° 0.1 mm 1 mps 673 mmHg 72%
11:00 +28°C° 0.1 mm 1 mps 673 mmHg 69%
12:00 +28°C° 0.4 mm 1 mps 673 mmHg 70%
13:00 +28°C° 0.4 mm 1 mps 673 mmHg 70%
14:00 +28°C° 0.4 mm 2 mps 672 mmHg 71%
15:00 +27°C° 0.5 mm 1 mps 672 mmHg 75%
16:00 +27°C° 0.5 mm 1 mps 672 mmHg 80%
17:00 +24°C° 0.5 mm 0 mps 672 mmHg 85%
18:00 +25°C° 0.5 mm 1 mps 672 mmHg 86%
19:00 +24°C° 0.5 mm 1 mps 673 mmHg 87%
20:00 +21°C° 0.5 mm 2 mps 673 mmHg 88%
21:00 +21°C° 0 mm 2 mps 673 mmHg 87%
22:00 +21°C° 0 mm 2 mps 673 mmHg 86%
23:00 +20°C° 0 mm 2 mps 674 mmHg 85%

Tomorrow, 10 July, Friday

Time Temperature Precipitation Wind Pressure Humidity
00:00 +20°C° 0 mm 2 mps 673 mmHg 83%
01:00 +20°C° 0 mm 2 mps 673 mmHg 80%
02:00 +21°C° 0 mm 1 mps 672 mmHg 78%
03:00 +21°C° 0 mm 1 mps 672 mmHg 76%
04:00 +20°C° 0 mm 2 mps 673 mmHg 75%
05:00 +20°C° 0 mm 2 mps 673 mmHg 73%
06:00 +23°C° 0 mm 1 mps 673 mmHg 70%
07:00 +25°C° 0 mm 1 mps 674 mmHg 66%
08:00 +25°C° 0 mm 0 mps 674 mmHg 63%
09:00 +28°C° 0 mm 1 mps 674 mmHg 60%
10:00 +30°C° 0 mm 1 mps 674 mmHg 58%
11:00 +31°C° 0 mm 1 mps 674 mmHg 55%
12:00 +31°C° 0.4 mm 1 mps 673 mmHg 57%
13:00 +31°C° 0.4 mm 1 mps 673 mmHg 59%
14:00 +31°C° 0.4 mm 2 mps 672 mmHg 62%
15:00 +29°C° 0.8 mm 1 mps 672 mmHg 68%
16:00 +28°C° 0.8 mm 1 mps 671 mmHg 75%
17:00 +27°C° 0.8 mm 1 mps 671 mmHg 82%
18:00 +25°C° 0.4 mm 2 mps 671 mmHg 82%
19:00 +24°C° 0.4 mm 2 mps 672 mmHg 83%
20:00 +23°C° 0.4 mm 2 mps 672 mmHg 84%
21:00 +21°C° 0 mm 2 mps 672 mmHg 83%
22:00 +21°C° 0 mm 2 mps 672 mmHg 83%
23:00 +20°C° 0 mm 2 mps 673 mmHg 82%

Day after tomorrow, 11 July, Saturday

Time Temperature Precipitation Wind Pressure Humidity
00:00 +20°C° 0 mm 2 mps 672 mmHg 82%
01:00 +20°C° 0 mm 2 mps 672 mmHg 82%
02:00 +20°C° 0 mm 2 mps 672 mmHg 82%
03:00 +20°C° 0 mm 2 mps 672 mmHg 81%
04:00 +20°C° 0 mm 2 mps 672 mmHg 80%
05:00 +20°C° 0 mm 2 mps 672 mmHg 78%
06:00 +23°C° 0 mm 2 mps 673 mmHg 74%
07:00 +25°C° 0 mm 1 mps 673 mmHg 69%
08:00 +25°C° 0 mm 0 mps 674 mmHg 65%
09:00 +28°C° 0 mm 1 mps 674 mmHg 62%
10:00 +30°C° 0 mm 1 mps 674 mmHg 59%
11:00 +31°C° 0 mm 1 mps 675 mmHg 56%
12:00 +31°C° 0.5 mm 1 mps 674 mmHg 57%
13:00 +31°C° 0.5 mm 1 mps 673 mmHg 59%
14:00 +31°C° 0.5 mm 2 mps 672 mmHg 61%
15:00 +30°C° 0.7 mm 1 mps 672 mmHg 68%
16:00 +29°C° 0.7 mm 1 mps 672 mmHg 74%
17:00 +28°C° 0.7 mm 1 mps 671 mmHg 80%
18:00 +26°C° 0.8 mm 1 mps 672 mmHg 82%
19:00 +25°C° 0.8 mm 1 mps 672 mmHg 84%
20:00 +23°C° 0.8 mm 1 mps 673 mmHg 86%
21:00 +23°C° 1.1 mm 1 mps 673 mmHg 88%
22:00 +21°C° 1.1 mm 2 mps 673 mmHg 89%
23:00 +21°C° 1.1 mm 2 mps 673 mmHg 91%

12 July, Sunday

Time Temperature Precipitation Wind Pressure Humidity
00:00 +21°C° 0.6 mm 2 mps 673 mmHg 90%
01:00 +20°C° 0.6 mm 2 mps 673 mmHg 90%
02:00 +20°C° 0.6 mm 2 mps 672 mmHg 89%
03:00 +20°C° 0 mm 2 mps 672 mmHg 88%
04:00 +20°C° 0 mm 2 mps 672 mmHg 87%
05:00 +20°C° 0 mm 1 mps 672 mmHg 86%
06:00 +22°C° 0 mm 1 mps 673 mmHg 81%
07:00 +24°C° 0 mm 1 mps 673 mmHg 76%
08:00 +24°C° 0 mm 0 mps 674 mmHg 71%
09:00 +28°C° 0.2 mm 1 mps 674 mmHg 68%
10:00 +29°C° 0.2 mm 1 mps 674 mmHg 66%
11:00 +30°C° 0.2 mm 2 mps 673 mmHg 63%
12:00 +30°C° 0.8 mm 1 mps 673 mmHg 64%
13:00 +30°C° 0.8 mm 1 mps 672 mmHg 64%
14:00 +30°C° 0.8 mm 1 mps 671 mmHg 65%
15:00 +29°C° 1.8 mm 1 mps 671 mmHg 71%
16:00 +28°C° 1.8 mm 1 mps 671 mmHg 78%
17:00 +25°C° 1.8 mm 0 mps 670 mmHg 84%
18:00 +23°C° 3.2 mm 0 mps 671 mmHg 88%
19:00 +23°C° 3.2 mm 1 mps 672 mmHg 92%
20:00 +22°C° 3.2 mm 1 mps 672 mmHg 96%
21:00 +21°C° 0.5 mm 1 mps 672 mmHg 96%
22:00 +21°C° 0.5 mm 1 mps 673 mmHg 95%
23:00 +20°C° 0.5 mm 2 mps 673 mmHg 94%

13 July, Monday

Time Temperature Precipitation Wind Pressure Humidity
00:00 +21°C° 0 mm 1 mps 673 mmHg 93%
01:00 +20°C° 0 mm 1 mps 672 mmHg 92%
02:00 +20°C° 0 mm 1 mps 672 mmHg 91%
03:00 +20°C° 0 mm 1 mps 672 mmHg 91%
04:00 +20°C° 0 mm 1 mps 672 mmHg 90%
05:00 +19°C° 0 mm 1 mps 672 mmHg 90%
06:00 +21°C° 0 mm 1 mps 673 mmHg 85%
07:00 +22°C° 0 mm 0 mps 674 mmHg 80%
08:00 +24°C° 0 mm 0 mps 674 mmHg 75%
09:00 +27°C° 0.2 mm 1 mps 674 mmHg 72%
10:00 +28°C° 0.2 mm 1 mps 674 mmHg 70%
11:00 +29°C° 0.2 mm 2 mps 674 mmHg 67%
12:00 +29°C° 0.6 mm 2 mps 673 mmHg 67%
13:00 +29°C° 0.6 mm 1 mps 672 mmHg 67%
14:00 +29°C° 0.6 mm 1 mps 672 mmHg 68%
15:00 +29°C° 0.5 mm 1 mps 672 mmHg 72%
16:00 +28°C° 0.5 mm 1 mps 671 mmHg 76%
17:00 +27°C° 0.5 mm 1 mps 671 mmHg 81%
18:00 +26°C° 0.5 mm 1 mps 672 mmHg 82%
19:00 +25°C° 0.5 mm 1 mps 672 mmHg 84%
20:00 +23°C° 0.5 mm 1 mps 672 mmHg 85%
21:00 +23°C° 0.8 mm 1 mps 672 mmHg 86%
22:00 +22°C° 0.8 mm 1 mps 673 mmHg 87%
23:00 +21°C° 0.8 mm 2 mps 673 mmHg 88%

14 July, Tuesday

Time Temperature Precipitation Wind Pressure Humidity
00:00 +20°C° 0.9 mm 2 mps 672 mmHg 89%
01:00 +20°C° 0.9 mm 2 mps 672 mmHg 89%
02:00 +21°C° 0.9 mm 1 mps 672 mmHg 89%
03:00 +20°C° 0.4 mm 1 mps 672 mmHg 89%
04:00 +20°C° 0.4 mm 1 mps 672 mmHg 89%
05:00 +20°C° 0.4 mm 1 mps 672 mmHg 89%
06:00 +22°C° 0 mm 1 mps 673 mmHg 85%
07:00 +24°C° 0 mm 1 mps 673 mmHg 80%
08:00 +24°C° 0 mm 0 mps 674 mmHg 76%
09:00 +27°C° 0.2 mm 1 mps 674 mmHg 74%
10:00 +28°C° 0.2 mm 1 mps 673 mmHg 72%
11:00 +29°C° 0.2 mm 1 mps 673 mmHg 70%
12:00 +29°C° 0.4 mm 1 mps 673 mmHg 69%
13:00 +30°C° 0.4 mm 1 mps 672 mmHg 68%
14:00 +30°C° 0.4 mm 1 mps 671 mmHg 67%
15:00 +29°C° 0.8 mm 1 mps 671 mmHg 72%
16:00 +29°C° 0.8 mm 1 mps 671 mmHg 77%
17:00 +28°C° 0.8 mm 1 mps 670 mmHg 82%
18:00 +26°C° 0.8 mm 1 mps 671 mmHg 84%
19:00 +25°C° 0.8 mm 1 mps 671 mmHg 86%
20:00 +24°C° 0.8 mm 1 mps 671 mmHg 88%
21:00 +23°C° 0.8 mm 1 mps 671 mmHg 88%
22:00 +23°C° 0.8 mm 2 mps 672 mmHg 88%
23:00 +21°C° 0.8 mm 2 mps 672 mmHg 89%
Show more